Location: Addison Town Hall
(32.9525°N, 96.8158°W)
Time: 21:21:58
(UTC+00:00)

Milstar 3 Cent rocket - Visible Passes

Search period start: 24 June 2021 00:00
Search period end: 04 July 2021 00:00
Orbit: 708 x 5145 km, 28.3° (Epoch: 23 June)

Date Brightness Start Highest point End Pass type
(mag) Time Alt. Az. Time Alt. Az. Time Alt. Az.
24 Jun 6.5 01:33:34 10° S 01:51:03 20° SE 02:10:22 10° E visible
24 Jun 5.9 04:08:22 10° SW 04:38:04 50° SSE 05:03:10 10° E visible
24 Jun 5.4 06:53:51 10° WSW 07:26:41 73° S 07:45:07 10° E visible
24 Jun 4.7 09:46:18 10° W 10:12:00 72° SSW 10:23:26 10° ESE visible
25 Jun 6.2 02:21:07 10° SSW 02:44:21 32° SE 03:09:17 10° E visible
25 Jun 5.8 05:00:27 10° SW 05:32:21 61° SSE 05:56:21 10° E visible
25 Jun 5.2 07:48:52 10° WSW 08:20:42 77° S 08:36:54 10° E visible
25 Jun 4.6 10:42:04 10° W 11:04:19 62° SSW 11:14:18 10° ESE visible
26 Jun 6.0 03:10:58 10° SSW 03:37:53 44° SE 04:04:51 10° E visible
26 Jun 5.6 05:53:40 10° WSW 06:26:51 71° SSE 06:48:54 10° E visible
26 Jun 5.1 08:44:30 10° W 09:14:17 76° S 09:28:23 10° ESE visible
27 Jun 6.3 01:25:50 10° S 01:45:02 25° SE 02:07:56 10° E visible
27 Jun 5.9 04:02:11 10° SW 04:31:53 56° SSE 04:58:51 10° E visible
27 Jun 5.5 06:47:54 10° WSW 07:21:22 77° S 07:41:04 10° E visible
27 Jun 4.9 09:40:22 10° W 10:07:16 69° SSW 10:19:33 10° ESE visible
28 Jun 6.1 02:14:33 10° SSW 02:38:01 38° SE 03:05:18 10° E visible
28 Jun 5.8 04:54:32 10° SW 05:26:23 67° SSE 05:52:01 10° E visible
28 Jun 5.3 07:42:59 10° W 08:15:37 78° S 08:32:56 10° E visible
28 Jun 4.8 10:36:16 10° W 10:59:32 56° SSW 11:10:17 10° SE visible
29 Jun 6.0 03:04:55 10° SW 03:31:31 51° SSE 04:00:23 10° E visible
29 Jun 5.7 05:47:54 10° WSW 06:21:11 75° SSE 06:44:40 10° E visible
29 Jun 5.2 08:38:35 10° W 09:09:20 74° SSW 09:24:27 10° ESE visible
30 Jun 6.2 01:19:07 10° S 01:38:47 31° SE 02:04:16 10° E visible
30 Jun 5.9 03:56:27 10° SW 04:25:39 63° SSE 04:54:18 10° E visible
30 Jun 5.6 06:42:13 10° WSW 07:15:57 79° S 07:36:57 10° E visible
30 Jun 5.0 09:34:27 10° W 10:02:20 65° SSW 10:15:32 10° SE visible
01 Jul 6.0 02:08:35 10° SSW 02:31:36 44° SE 03:00:45 10° E visible
01 Jul 5.8 04:48:59 10° WSW 05:20:24 72° SSE 05:47:33 10° E visible
01 Jul 5.4 07:37:14 10° W 08:10:24 78° S 08:28:53 10° ESE visible
01 Jul 5.0 10:30:28 10° W 10:54:28 50° SSW 11:06:05 10° SE visible
02 Jul 5.9 02:59:19 10° SW 03:25:07 57° SSE 03:55:36 10° E visible
02 Jul 5.7 05:42:26 10° WSW 06:15:27 78° S 06:40:21 10° E visible
02 Jul 5.3 08:32:44 10° W 09:04:11 71° SSW 09:20:22 10° ESE visible
03 Jul 5.9 03:51:05 10° SW 04:19:26 68° SSE 04:49:34 10° E visible
03 Jul 5.6 06:36:42 10° W 07:10:28 79° S 07:32:45 10° E visible
03 Jul 5.2 09:28:33 10° W 09:57:07 59° SSW 10:11:21 10° SE visible
